This is the latest recevied weather packets stored in our database for station/object WX4SGA. If no packets are shown the sender has not sent any weather packets the latest 10 day(s).
| Time | Temp. | Humidity | Pressure | Rain* | Wind** | Luminosity | Snow |
|---|---|---|---|---|---|---|---|
| 1777756739 | 17.78° C | 85% | 1011.2 hPa | 0 mm | - | 493 W/m² | - |
| 1777756434 | 17.22° C | 86% | 1011.2 hPa | 0 mm | - | 207 W/m² | - |
| 1777756132 | 16.67° C | 89% | 1011.2 hPa | 0 mm | - | 514 W/m² | - |
| 1777755829 | 16.67° C | 93% | 1011.2 hPa | 0 mm | - | 572 W/m² | - |
| 1777755526 | 16.11° C | 94% | 1011.2 hPa | 0 mm | - | 378 W/m² | - |
| 1777755222 | 16.11° C | 94% | 1011.2 hPa | 0 mm | - | 60 W/m² | - |
| 1777754919 | 16.11° C | 96% | 1011.2 hPa | 0 mm | - | 141 W/m² | - |
| 1777754617 | 16.11° C | 97% | 1011.2 hPa | 0 mm | - | 222 W/m² | - |
| 1777754314 | 16.11° C | 97% | 1011.2 hPa | 0 mm | - | 170 W/m² | - |
| 1777754011 | 16.11° C | 97% | 1011.2 hPa | 0 mm | - | 163 W/m² | - |
| 1777753712 | 16.11° C | 96% | 1011.2 hPa | 0 mm | - | 146 W/m² | - |
| 1777753410 | 16.11° C | 95% | 1011.2 hPa | 0 mm | - | 138 W/m² | - |
| 1777753107 | 16.11° C | 96% | 1011.2 hPa | 0 mm | - | 159 W/m² | - |
| 1777752803 | 16.11° C | 95% | 1011.2 hPa | 0 mm | - | 152 W/m² | - |
| 1777752500 | 16.11° C | 95% | 1011.2 hPa | 0 mm | - | 184 W/m² | - |
| 1777752195 | 16.11° C | 92% | 1011.2 hPa | 0 mm | - | 197 W/m² | - |
| 1777751894 | 16.67° C | 91% | 1011.2 hPa | 0 mm | - | 241 W/m² | - |
| 1777751590 | 16.67° C | 91% | 1011.5 hPa | 0 mm | - | 243 W/m² | - |
| 1777751286 | 16.67° C | 91% | 1011.2 hPa | 0 mm | - | 320 W/m² | - |
| 1777750984 | 16.11° C | 92% | 1011.2 hPa | 0 mm | - | 325 W/m² | - |
| 1777750679 | 16.11° C | 93% | 1011.5 hPa | 0 mm | - | 279 W/m² | - |
| 1777750378 | 15.56° C | 93% | 1011.5 hPa | 0 mm | - | 262 W/m² | - |
| 1777750077 | 15.56° C | 93% | 1011.5 hPa | 0 mm | - | 152 W/m² | - |
| 1777749775 | 15.56° C | 93% | 1011.5 hPa | 0 mm | - | 117 W/m² | - |
| 1777749472 | 15.56° C | 92% | 1011.5 hPa | 0 mm | - | 78 W/m² | - |
* Rain latest hour (hover to see other rain measurements)
** Current wind speed in m/s (hover to see current wind gust speed)